C/2022 V2 ( Lemmon )

Japanese version
Home page
Updated on November 14, 2023

---------------------------------------------------------------------

* Profile

Discovery Date November 2, 2022
Magnitude 20.6 mag
Discoverer Mt. Lemmon Survey

* Pictures

* Orbital Elements

Epoch 2023 Feb. 25.0 TT = JDT 2460000.5                                         
T 2023 Nov. 1.94247 TT                                  Rudenko                 
q   2.0635122            (2000.0)            P               Q                  
z  +0.0271991      Peri.  168.95435     -0.88699351     -0.10120100             
 +/-0.0000006      Node   332.86709     +0.31115846     +0.58994976             
e   0.9438743      Incl.   98.90727     +0.34120805     -0.80107281             
>From 297 observations 2022 July 20-2023 May 23, mean residual 0".5.             

* Finding Charts

* Magnitudes Graph

        m1 = 11.5 + 5 log d + 10.0 log r

---------------------------------------------------------------------

The orbital elements are published on M.P.E.C. 2023-K121.
The charts are made with StellaNavigator Ver.11 (AstroArts).
The magnitudes graphs are made with Comet for Windows.

---------------------------------------------------------------------

Copyright(C) Seiichi Yoshida (comet@aerith.net). All rights reserved.